STARLINK-35039

Last updated on Thu Oct 02 2025 00:02:05 GMT+0000 (Coordinated Universal Time)

1 65451U 25194T 25274.52290465 .00078505 00000+0 19953-2 0 9998 2 65451 97.6022 126.8150 0002077 105.7480 254.3994 15.39331355 5653

Satellite not in orbit

STARLINK-35039